Weather History for Truth Or Consequences, NM

Change the Weather History Date:

Monday, December 16, 2013

  Actual Average Record
Temperature  
Mean Temperature 43 °F -  
Max Temperature 58 °F 52 °F 66 °F (2006)
Min Temperature 28 °F 28 °F 19 °F (1996)
Degree Days  
Heating Degree Days 22    
Month to date heating degree days 392  
Since 1 July heating degree days 1060  
Moisture  
Dew Point 22 °F    
Average Humidity 47    
Maximum Humidity 69    
Minimum Humidity 24    
Precipitation  
Precipitation 0.00 in - 0.07 in (2001)
Month to date precipitation 0.28  
Year to date precipitation 11.99  
Sea Level Pressure  
Sea Level Pressure 30.27 in    
Wind  
Wind Speed 4 mph (North)    
Max Wind Speed 12 mph    
Max Gust Speed 13 mph    
Visibility 10 miles    
Events      
T = Trace of Precipitation, MM = Missing Value Source: NWS Daily Summary

Daily Weather History Graph

Daily Weather History Graph

Search for Another Location

Airport:

Trip Planner

Search our weather history database for the weather conditions in past years. The results will help you decide how hot, cold, wet, or windy it might be!

Date:

Astronomy

Dec. 16, 2013 Rise Set
Actual Time 7:06 AM MST 5:03 PM MST
Civil Twilight 6:38 AM MST 5:31 PM MST
Nautical Twilight 6:07 AM MST 6:02 PM MST
Astronomical Twilight 5:37 AM MST 6:32 PM MST
Moon 4:53 PM MST (12/16) 6:19 AM MST (12/16)
Length of Visible Light 10h 52m
Length of Day
9h 57m
Full, 100% of the Moon is Illuminated
Dec 16
Full
Dec 17
Full
Dec 25
Last Quarter
Jan 1
New
Jan 7
First Quarter

Hourly Weather History & Observations

Time (MST) Temp. Windchill Dew Point Humidity Pressure Visibility Wind Dir Wind Speed Gust Speed Precip Events Conditions
12:53 AM 35.1 °F 30.1 °F 19.9 °F 54% 30.28 in 10.0 mi NNW 5.8 mph - N/A   Clear
1:53 AM 33.1 °F 30.0 °F 19.9 °F 59% 30.29 in 10.0 mi NNW 3.5 mph - N/A   Clear
2:53 AM 35.1 °F 31.0 °F 19.0 °F 52% 30.27 in 10.0 mi NNW 4.6 mph - N/A   Clear
3:53 AM 28.9 °F 25.2 °F 19.9 °F 69% 30.28 in 10.0 mi NE 3.5 mph - N/A   Clear
4:53 AM 32.0 °F 28.7 °F 19.0 °F 59% 30.27 in 10.0 mi NNW 3.5 mph - N/A   Clear
5:53 AM 28.9 °F 22.8 °F 19.9 °F 69% 30.29 in 10.0 mi North 5.8 mph - N/A   Clear
6:53 AM 28.9 °F 21.9 °F 19.0 °F 67% 30.32 in 10.0 mi North 6.9 mph - N/A   Clear
7:53 AM 35.1 °F 31.0 °F 19.9 °F 54% 30.33 in 10.0 mi North 4.6 mph - N/A   Clear
8:53 AM 39.0 °F 34.0 °F 21.0 °F 49% 30.33 in 10.0 mi NNE 6.9 mph - N/A   Clear
9:53 AM 43.0 °F 41.3 °F 21.0 °F 42% 30.33 in 10.0 mi NNE 3.5 mph - N/A   Clear
10:53 AM 48.0 °F - 21.0 °F 34% 30.30 in 10.0 mi NE 4.6 mph - N/A   Clear
11:53 AM 50.0 °F - 21.0 °F 32% 30.28 in 10.0 mi Variable 3.5 mph - N/A   Clear
12:53 PM 54.0 °F - 21.0 °F 28% 30.23 in 10.0 mi East 3.5 mph - N/A   Clear
1:53 PM 55.0 °F - 21.9 °F 28% 30.22 in 10.0 mi SSW 3.5 mph - N/A   Clear
2:53 PM 55.9 °F - 21.9 °F 27% 30.20 in 10.0 mi Calm Calm - N/A   Clear
3:53 PM 57.0 °F - 21.9 °F 26% 30.21 in 10.0 mi Calm Calm - N/A   Clear
4:53 PM 54.0 °F - 26.1 °F 34% 30.21 in 10.0 mi Calm Calm - N/A   Clear
5:53 PM 51.1 °F - 23.0 °F 33% 30.23 in 10.0 mi Calm Calm - N/A   Clear
6:53 PM 45.0 °F - 26.1 °F 48% 30.27 in 10.0 mi Calm Calm - N/A   Clear
7:53 PM 39.9 °F 34.5 °F 25.0 °F 55% 30.28 in 10.0 mi WNW 8.1 mph - N/A   Clear
8:53 PM 44.1 °F 41.5 °F 21.9 °F 42% 30.27 in 10.0 mi NNW 4.6 mph - N/A   Clear
9:53 PM 44.1 °F 40.8 °F 21.9 °F 42% 30.27 in 10.0 mi NNW 5.8 mph - N/A   Clear
10:53 PM 43.0 °F 40.3 °F 21.0 °F 42% 30.28 in 10.0 mi North 4.6 mph - N/A   Clear
11:53 PM 35.1 °F 29.3 °F 23.0 °F 61% 30.30 in 10.0 mi WNW 6.9 mph - N/A   Clear